Location: Kelshall
(52.0000°N, 0.0500°W)
Time: 02:23:14
(UTC+00:00)

Cosmos 1842 - Pass Details

Date: 18 September 2020
Orbit: 522 x 536 km, 82.5° (Epoch: 30 October)

Event Time Altitude Azimuth Distance (km) Brightness Sun altitude
Rises 19:00:06 0° 345° (NNW) 2,666 7.2 -8.9°
Reaches altitude 10° 19:02:17 10° 342° (NNW) 1,772 6.4 -9.2°
Maximum altitude 19:06:04 55° 264° (W) 637 4.0 -9.8°
Drops below altitude 10° 19:09:51 10° 187° (S) 1,759 5.8 -10.4°
Sets 19:12:00 0° 183° (S) 2,644 6.7 -10.7°
